Погода в Сретенске

Погода в Сретенске : погода сейчас, прогноз погоды и архив. Всё, что Вы хотите узнать о погоде в Сретенске!

Хотите узнать прогноз погоды в Сретенске? Тогда Вам сюда: Погода в Сретенске

Поиск расширенной информации на нашем сайте:

Другие новости

Новости СМИ2

Главная страница сайта

Новости сайта

03.07.2017

Напоминаем, что на нашем специализированном сайте Метеоцентр.Азия вы можете получить высокодетализированные автоматические прогнозы погоды по пунктам России, СНГ и мира в авиационном формате (включающие направление и скорость ветра, видимость, явления погоды, количество и форму облачности, нижнюю и верхнюю границу облачности).


Погода в Сретенске - сегодня

Время (UTC), дата Ветер
(°,м/с) 
Видим.   Явления Облачность Т
(°С)
Тd
(°С)
f(%) Тe
(°С)
Pmin
(гПа)
dP
(гПа)
Po
(мм)
O2
(г/м3)
Тmin Tmax R s Состояние
почвы
21 20.02.18 220 (ЮЗ) 20000 м  {снег}  4/0 средняя, верхняя 
[As op|Ci sp]
-23.8 -26.4 79 -27  1020.5  -1.1  712  316           
00 21.02.18 240 (ЮЗ) 20000 м  {снег}  10/0 средняя, верхняя 
[As op|Ci sp]
-25.9 -28.6 78 -32  1020.8  -0.2  712  319  -27.2    0.2  равномерный
сухой снег
100% 
03 21.02.18 230 (ЮЗ) 20000 м    8/0 верхняя 
[Ci sp]
-18.6 -22.4 72 -24  1018.5  -0.2  712  309  -27.3         
06 21.02.18 260 (З) 20000 м    10/3 600 м кучево-дожд., верхняя 
[Cb cap|Ci sp]
-12.7 -20.8 51 -18  1015.8  -1.1  711  302           
09 21.02.18 300 (СЗ) 10 км  слаб. ливневой снег  10/10 600 м кучево-дожд. 
[Cb cap]
-12.7 -18.1 64 -16  1016.6  0.8  712  302           
12 21.02.18 210 (ЮЗ) 20000 м  {ливн. осадки}  3/0 верхняя 
[Ci sp]
-18.5 -21.9 75 -21  1019.1  0.9  712  309    -11.5  0.0     
15 21.02.18 240 (ЮЗ) 20000 м    3/0 верхняя 
[Ci sp]
-23.2 -25.6 81 -28  1020.6  0.1  713  315           
18 21.02.18 230 (ЮЗ) 20000 м    ясно 
-28.4 -31.5 75 -29  1022.5  0.3  713  322           
21 21.02.18 230 (ЮЗ) 20000 м    ясно 
-30.8 -34.1 73 -32  1023.5  0.3  713  326           
00 22.02.18 250 (З) 20000 м    9/0 средняя, верхняя 
[Ac lent|Ci sp]
-32.4 -36 70 -33  1024.7  0.6  713  328  -32.4      равномерный
сухой снег
100% 
03 22.02.18 260 (З) 20000 м    ясно 
-24.5 -27.6 75 -28  1021.9  -0.5  713  317  -32.6         
06 22.02.18 240 (ЮЗ) 20000 м    1/0 верхняя 
[Ci fib]
-16.7 -23.9 54 -23  1018.4  -1.1  712  307           
09 22.02.18 220 (ЮЗ) 20000 м    1/0 верхняя 
[Ci sp]
-16.2 -25.6 44 -16  1018.9  0.5  713  307           
12 22.02.18 210 (ЮЗ) 20000 м    ясно 
-21.5 -27 61 -24  1022  1.5  714  314    -15.8       
15 22.02.18 230 (ЮЗ) 20000 м    ясно 
-26.5 -29.9 73 -27  1024.8  1.2  715  321           
18 22.02.18 тихо ()   20000 м    ясно 
-29.2 -32.4 74 -29  1027.5  1.7  716  325           
21 22.02.18 250 (З) 20000 м    ясно 
-32.6 -36 72 -33  1030.6  1.9  717  330           
00 23.02.18 тихо ()   20000 м    ясно 
-34.4 -38.1 69 -34  1033.8  2.4  719  334  -34.8      равномерный
сухой снег
100% 
03 23.02.18 250 (З) 20000 м    ясно 
-25 -30.5 60 -28  1032  1.1  720  321           
06 23.02.18 240 (ЮЗ) 20000 м    1/0 верхняя 
[Ci sp]
-16.7 -25 49 -22  1029.6  720  311           
09 23.02.18 230 (ЮЗ) 20000 м    3/0 верхняя 
[Ci sp]
-15.3 -24.4 46 -18  1030  0.7  721  309           
15 23.02.18 тихо ()   20000 м    ясно 
-24.8 -28.5 71 -25  1035  0.6  722  322           
18 23.02.18 090 (В) 20000 м    ясно 
-28.1 -31 76 -29  1036.1  0.2  722  326           
21 23.02.18 тихо ()   20000 м    ясно 
-30.8 -33.9 74 -31  1036.5  -0.5  722  330           
00 24.02.18 тихо ()   20000 м    3/0 верхняя 
[Ci sp]
-32.6 -36.1 71 -33  1037.2  0.1  722  332  -33.1      равномерный
сухой снег
100% 
Время (UTC), дата Ветер
(°,м/с) 
Видим.   Явления Облачность Т
(°С)
Тd
(°С)
f(%) Тe
(°С)
Pmin
(гПа)
dP
(гПа)
Po
(мм)
O2
(г/м3)
Тmin Tmax R s Состояние
почвы

Для получения пояснительной информации подведите курсор к названию столбца.

ПОГОДА в Сретенске - архив

Всё, что Вы хотите узнать о погоде в Сретенске - удобно и подробно!

Выберите нужную дату (начиная с 1 января 2015* года) и нажмите кнопку "Найти".
Будут отображены архивные сводки погоды по пункту Сретенск, начиная с указанной даты.


Отображать данные в формате CSV (для использования в таблицах Excel)


Внимание! Наш архив погоды предназначен исключительно для личного некоммерческого использования в познавательных целях. Если Вам необходимы официальные справки о состоянии погоды (для производственных, юридических, коммерческих и т.п. целей), обращайтесь в органы Росгидромета.

*Примечание: данная дата относится к архиву по метеостанциям СССР (Россия, СНГ, Балтия).
Архив по метеостанциям Зарубежной Европы и Азии (кроме Китая) хранится 10 дней, по другим регионам земного шара (Китай, Африка, Америка, Австралия, Океания) - 1 день.

Сретенск - район местоположения метеостанции


Название, широта, долгота, высота метеостанции:
Сретенск 52.2°ш. 117.7°д. 525 м над ур. моря [Российская Федерация]

Дополнительная информация

В oтличие oт бoльшинства пoгoдных сайтoв мы публикуем пoдрoбную метеoинфoрмацию в детальнoм прoфессиoнальнoм фoрмате.

Характеристики температуры и влажнoсти вoздуха измеряются на высoте 2 м в тени вдали oт зданий и деревьев.
Скoрoсть ветра измеряется на высoте 10 м (на урoвне рoста челoвека скoрoсть ветра ниже в 1.5-2 раза). Если метеoстанция нахoдится в гoрoде или в лесу, тo скoрoсть ветра занижена на 2-4 м/с пo сравнению с oткрытым местoм. Скoрoсть ветра над акватoриями крупных рек и oзёр, а также на вершинах хoлмoв на 2-5 м/с выше, чем в oбычных услoвиях.
Атмoсфернoе давление в разных тoчках местнoсти мoжет значительнo oтличаться oт давления на метеoстанции, в зависимoсти oт услoвий рельефа (при пoдъёме на 10 м давление пoнижается примернo на 1 мм рт.ст.).